Back to catalog

SDA_1672

AliveMilitaryPO
NORAD 65982·PAYLOAD·🇺🇸 United States

Launched Oct 15, 2025 from Vandenberg Space Force Base

Loading…

Next Passes (next 24 hours)

TLE

FreshSource: Space-Track

Epoch: Sep 14, 2026, 14:16 UTC

1 65982U 25230J   26257.59478493  .00000146  00000-0  12413-3 0  9998
2 65982  81.3012 129.5169 0000907  70.7254 289.3999 13.82263272 46141

Track SDA_1672 in real time with AllMySat

Download on the App Store